Weather History for Fountain Dale, PA

Change the Weather History Date:

Wednesday, February 13, 2013

  Actual Average (KHGR) Record (KHGR)
Temperature  
Mean Temperature 33 °F -  
Max Temperature 39 °F 40 °F 53 °F (2011)
Min Temperature 27 °F 25 °F 15 °F (1997)
Degree Days  
Heating Degree Days 32    
Moisture  
Dew Point 26 °F    
Average Humidity 74    
Maximum Humidity 89    
Minimum Humidity 57    
Precipitation  
Precipitation 0.05 in - - ()
Sea Level Pressure  
Sea Level Pressure 29.79 in    
Wind  
Wind Speed 1 mph (NE)    
Max Wind Speed 9 mph    
Max Gust Speed -    
Visibility 6 miles    
Events Snow    
Averages and records for this station are not official NWS values.
T = Trace of Precipitation, MM = Missing Value Source: NWS Daily Summary

Daily Weather History Graph

Daily Weather History Graph

Search for Another Location

Airport:

Trip Planner

Search our weather history database for the weather conditions in past years. The results will help you decide how hot, cold, wet, or windy it might be!

Date:

Astronomy

Feb. 13, 2013 Rise Set
Actual Time 7:04 AM EST 5:44 PM EST
Civil Twilight 6:36 AM EST 6:11 PM EST
Nautical Twilight 6:05 AM EST 6:43 PM EST
Astronomical Twilight 5:33 AM EST 7:14 PM EST
Moon 8:33 AM EST (2/13) 9:43 PM EST (2/13)
Length of Visible Light 11h 35m
Length of Day
10h 39m
Waxing Crescent, 13% of the Moon is Illuminated
Feb 13
Waxing Crescent
Feb 17
First Quarter
Feb 25
Full
Mar 4
Last Quarter
Mar 11
New

Hourly Weather History & Observations

Time (EST) Temp. Windchill Dew Point Humidity Pressure Visibility Wind Dir Wind Speed Gust Speed Precip Events Conditions
12:53 AM 30.9 °F - 24.1 °F 76% 29.96 in 9.0 mi Calm Calm - N/A   Clear
1:53 AM 28.9 °F - 23.0 °F 78% 29.95 in 9.0 mi Calm Calm - N/A   Clear
3:53 AM 28.0 °F - 21.9 °F 78% 29.91 in 8.0 mi Calm Calm - N/A   Clear
4:53 AM 27.0 °F - 21.9 °F 81% 29.90 in 7.0 mi Calm Calm - N/A   Clear
6:53 AM 27.0 °F - 23.0 °F 85% 29.89 in 7.0 mi Calm Calm - N/A   Mostly Cloudy
8:53 AM 32.0 °F - 25.0 °F 75% 29.88 in 5.0 mi Calm Calm - N/A   Haze
9:53 AM 37.0 °F - 24.1 °F 59% 29.86 in 10.0 mi Calm Calm - N/A   Overcast
10:53 AM 37.9 °F 35.5 °F 24.1 °F 57% 29.86 in 10.0 mi Variable 3.5 mph - N/A   Overcast
11:53 AM 37.9 °F 35.5 °F 24.1 °F 57% 29.80 in 10.0 mi ENE 3.5 mph - N/A   Overcast
12:53 PM 39.0 °F 35.7 °F 25.0 °F 57% 29.78 in 10.0 mi North 4.6 mph - N/A   Overcast
1:53 PM 39.0 °F - 25.0 °F 57% 29.76 in 10.0 mi Calm Calm - N/A   Overcast
2:53 PM 39.0 °F - 25.0 °F 57% 29.72 in 9.0 mi Calm Calm - N/A   Overcast
3:53 PM 39.0 °F 35.7 °F 27.0 °F 62% 29.69 in 8.0 mi Variable 4.6 mph - N/A   Overcast
4:53 PM 37.9 °F - 28.0 °F 68% 29.70 in 5.0 mi Calm Calm - 0.00 in   Haze
5:29 PM 35.6 °F 31.7 °F 30.2 °F 81% 29.66 in 1.8 mi Variable 4.6 mph - 0.00 in Snow Light Snow
5:53 PM 36.0 °F 29.0 °F 30.0 °F 79% 29.70 in 2.5 mi ENE 9.2 mph - 0.00 in Snow Light Snow
7:53 PM 34.0 °F - 30.9 °F 89% 29.73 in 1.0 mi Calm Calm - 0.04 in Snow Light Snow
8:03 PM 33.8 °F - 30.2 °F 87% 29.69 in 0.8 mi Calm Calm - 0.01 in Snow Light Snow
9:53 PM 34.0 °F - 30.9 °F 89% 29.75 in 1.2 mi Calm Calm - 0.01 in Snow Light Snow
10:13 PM 33.8 °F - 30.2 °F 87% 29.71 in 3.0 mi Calm Calm - 0.01 in Snow Light Snow
11:53 PM 34.0 °F - 30.9 °F 89% 29.77 in 4.0 mi Calm Calm - N/A   Mostly Cloudy